When you browse on this site, cookies collect data to enhance your experience and personalize the content and advertising you see.
Visit our Privacy Policy to learn more. By continuing to use the site, you agree to this use of cookies and data.
  • In Latvia
  • List of Countries
  • For 7 days
  • Water Temperature
  • Weather Map
  • Weather Widgets
  • user-avatar
    Login

    Hourly Weather Sosnovka

    Today, 30 March, Monday

    Time Temperature Precipitation Wind Pressure Humidity
    00:00 -9°C° 0 mm 3 mps 743 mmHg 88%
    01:00 -9°C° 0 mm 3 mps 743 mmHg 88%
    02:00 -10°C° 0 mm 3 mps 743 mmHg 89%
    03:00 -10°C° 0 mm 3 mps 743 mmHg 89%
    04:00 -10°C° 0 mm 3 mps 744 mmHg 89%
    05:00 -12°C° 0 mm 3 mps 744 mmHg 88%
    06:00 -10°C° 0 mm 3 mps 744 mmHg 88%
    07:00 -8°C° 0 mm 3 mps 744 mmHg 88%
    08:00 -7°C° 0 mm 3 mps 744 mmHg 88%
    09:00 -6°C° 0 mm 3 mps 744 mmHg 89%
    10:00 -5°C° 0 mm 3 mps 744 mmHg 90%
    11:00 -3°C° 0 mm 2 mps 745 mmHg 91%
    12:00 -3°C° 0 mm 2 mps 744 mmHg 92%
    13:00 -2°C° 0 mm 2 mps 744 mmHg 93%
    14:00 -2°C° 0 mm 2 mps 744 mmHg 93%
    15:00 -2°C° 0 mm 2 mps 744 mmHg 92%
    16:00 -3°C° 0 mm 2 mps 744 mmHg 90%
    17:00 -2°C° 0 mm 1 mps 744 mmHg 88%
    18:00 -3°C° 0 mm 1 mps 743 mmHg 85%
    19:00 -4°C° 0 mm 1 mps 743 mmHg 81%
    20:00 -6°C° 0 mm 1 mps 743 mmHg 77%
    21:00 -7°C° 0 mm 1 mps 743 mmHg 75%
    22:00 -8°C° 0 mm 2 mps 743 mmHg 73%
    23:00 -8°C° 0 mm 2 mps 743 mmHg 72%

    Tomorrow, 31 March, Tuesday

    Time Temperature Precipitation Wind Pressure Humidity
    00:00 -8°C° 0 mm 2 mps 743 mmHg 74%
    01:00 -8°C° 0 mm 2 mps 742 mmHg 75%
    02:00 -8°C° 0 mm 2 mps 741 mmHg 77%
    03:00 -8°C° 0 mm 2 mps 742 mmHg 77%
    04:00 -9°C° 0 mm 2 mps 742 mmHg 76%
    05:00 -9°C° 0 mm 2 mps 742 mmHg 75%
    06:00 -7°C° 0 mm 2 mps 742 mmHg 77%
    07:00 -6°C° 0 mm 2 mps 741 mmHg 78%
    08:00 -4°C° 0 mm 2 mps 741 mmHg 79%
    09:00 -3°C° 0 mm 2 mps 741 mmHg 85%
    10:00 0°C° 0 mm 1 mps 741 mmHg 90%
    11:00 +1°C° 0 mm 1 mps 741 mmHg 96%
    12:00 +1°C° 0 mm 1 mps 741 mmHg 96%
    13:00 +1°C° 0 mm 2 mps 740 mmHg 97%
    14:00 +1°C° 0 mm 2 mps 740 mmHg 97%
    15:00 +1°C° 0 mm 2 mps 740 mmHg 92%
    16:00 -1°C° 0 mm 2 mps 740 mmHg 88%
    17:00 -1°C° 0 mm 2 mps 739 mmHg 83%
    18:00 -2°C° 0 mm 2 mps 739 mmHg 77%
    19:00 -3°C° 0 mm 2 mps 739 mmHg 72%
    20:00 -3°C° 0 mm 2 mps 739 mmHg 67%
    21:00 -4°C° 0 mm 2 mps 739 mmHg 63%
    22:00 -4°C° 0 mm 2 mps 738 mmHg 60%
    23:00 -4°C° 0 mm 2 mps 738 mmHg 57%

    Day after tomorrow, 1 April, Wednesday

    Time Temperature Precipitation Wind Pressure Humidity
    00:00 -4°C° 0 mm 2 mps 738 mmHg 57%
    01:00 -4°C° 0 mm 2 mps 738 mmHg 58%
    02:00 -4°C° 0 mm 2 mps 737 mmHg 58%
    03:00 -4°C° 0 mm 2 mps 737 mmHg 60%
    04:00 -4°C° 0 mm 2 mps 738 mmHg 63%
    05:00 -4°C° 0 mm 2 mps 738 mmHg 65%
    06:00 -3°C° 0 mm 2 mps 738 mmHg 68%
    07:00 -1°C° 0 mm 2 mps 737 mmHg 71%
    08:00 +1°C° 0 mm 2 mps 737 mmHg 74%
    09:00 +1°C° 0 mm 2 mps 737 mmHg 79%
    10:00 +1°C° 0 mm 3 mps 737 mmHg 83%
    11:00 +2°C° 0 mm 3 mps 737 mmHg 88%
    12:00 +2°C° 0 mm 3 mps 737 mmHg 85%
    13:00 +3°C° 0 mm 4 mps 736 mmHg 82%
    14:00 +3°C° 0 mm 4 mps 736 mmHg 79%
    15:00 +3°C° 0 mm 4 mps 736 mmHg 74%
    16:00 +1°C° 0 mm 4 mps 736 mmHg 69%
    17:00 +1°C° 0 mm 4 mps 735 mmHg 64%
    18:00 0°C° 0 mm 4 mps 735 mmHg 62%
    19:00 0°C° 0 mm 5 mps 735 mmHg 61%
    20:00 -1°C° 0 mm 5 mps 735 mmHg 59%
    21:00 -1°C° 0 mm 5 mps 735 mmHg 59%
    22:00 -1°C° 0 mm 5 mps 735 mmHg 59%
    23:00 -1°C° 0 mm 5 mps 735 mmHg 59%

    2 April, Thursday

    Time Temperature Precipitation Wind Pressure Humidity
    00:00 -2°C° 0 mm 6 mps 734 mmHg 59%
    01:00 -2°C° 0 mm 6 mps 734 mmHg 58%
    02:00 -2°C° 0 mm 6 mps 734 mmHg 58%
    03:00 -2°C° 0 mm 7 mps 734 mmHg 59%
    04:00 -2°C° 0 mm 7 mps 734 mmHg 59%
    05:00 -2°C° 0 mm 8 mps 734 mmHg 59%
    06:00 -1°C° 0 mm 8 mps 734 mmHg 59%
    07:00 0°C° 0 mm 9 mps 734 mmHg 60%
    08:00 +1°C° 0 mm 9 mps 734 mmHg 60%
    09:00 +1°C° 0 mm 9 mps 734 mmHg 62%
    10:00 +2°C° 0 mm 9 mps 735 mmHg 64%
    11:00 +2°C° 0 mm 9 mps 735 mmHg 66%
    12:00 +2°C° 0.2 mm 8 mps 735 mmHg 70%
    13:00 +1°C° 0.2 mm 8 mps 735 mmHg 74%
    14:00 +2°C° 0.2 mm 7 mps 735 mmHg 78%
    15:00 +2°C° 0 mm 7 mps 735 mmHg 75%
    16:00 +2°C° 0 mm 7 mps 736 mmHg 73%
    17:00 +3°C° 0 mm 7 mps 736 mmHg 71%
    18:00 +2°C° 0 mm 7 mps 736 mmHg 71%
    19:00 +2°C° 0 mm 6 mps 736 mmHg 71%
    20:00 +2°C° 0 mm 6 mps 736 mmHg 71%
    21:00 +2°C° 0 mm 6 mps 737 mmHg 71%
    22:00 +2°C° 0 mm 6 mps 737 mmHg 72%
    23:00 +2°C° 0 mm 6 mps 737 mmHg 73%

    3 April, Friday

    Time Temperature Precipitation Wind Pressure Humidity
    00:00 +2°C° 0 mm 6 mps 737 mmHg 74%
    01:00 +1°C° 0 mm 6 mps 737 mmHg 76%
    02:00 +1°C° 0 mm 5 mps 737 mmHg 77%
    03:00 +1°C° 0 mm 5 mps 737 mmHg 81%
    04:00 +1°C° 0 mm 5 mps 737 mmHg 85%
    05:00 +1°C° 0 mm 5 mps 738 mmHg 89%
    06:00 +1°C° 0 mm 5 mps 738 mmHg 89%
    07:00 +3°C° 0 mm 4 mps 738 mmHg 88%
    08:00 +3°C° 0 mm 4 mps 739 mmHg 88%
    09:00 +4°C° 0 mm 4 mps 739 mmHg 89%
    10:00 +4°C° 0 mm 3 mps 739 mmHg 89%
    11:00 +6°C° 0 mm 2 mps 739 mmHg 89%
    12:00 +6°C° 0 mm 2 mps 739 mmHg 87%
    13:00 +7°C° 0 mm 2 mps 739 mmHg 85%
    14:00 +8°C° 0 mm 2 mps 739 mmHg 83%
    15:00 +7°C° 0 mm 3 mps 739 mmHg 86%
    16:00 +5°C° 0 mm 3 mps 739 mmHg 89%
    17:00 +5°C° 0 mm 3 mps 739 mmHg 92%
    18:00 +4°C° 0 mm 3 mps 739 mmHg 94%
    19:00 +3°C° 0 mm 3 mps 740 mmHg 95%
    20:00 +2°C° 0 mm 3 mps 740 mmHg 96%
    21:00 +2°C° 0 mm 3 mps 740 mmHg 94%
    22:00 +3°C° 0 mm 2 mps 740 mmHg 91%
    23:00 +3°C° 0 mm 2 mps 740 mmHg 89%

    4 April, Saturday

    Time Temperature Precipitation Wind Pressure Humidity
    00:00 +3°C° 0 mm 2 mps 740 mmHg 87%
    01:00 +3°C° 0 mm 2 mps 740 mmHg 86%
    02:00 +2°C° 0 mm 2 mps 740 mmHg 85%
    03:00 +2°C° 0 mm 2 mps 740 mmHg 84%
    04:00 +3°C° 0 mm 1 mps 740 mmHg 83%
    05:00 +3°C° 0 mm 1 mps 740 mmHg 82%
    06:00 +4°C° 0 mm 1 mps 740 mmHg 79%
    07:00 +6°C° 0 mm 1 mps 740 mmHg 77%
    08:00 +7°C° 0 mm 1 mps 740 mmHg 74%
    09:00 +7°C° 0 mm 2 mps 740 mmHg 73%
    10:00 +8°C° 0 mm 2 mps 740 mmHg 71%
    11:00 +9°C° 0 mm 3 mps 740 mmHg 70%
    12:00 +9°C° 0 mm 3 mps 740 mmHg 70%
    13:00 +10°C° 0 mm 4 mps 740 mmHg 71%
    14:00 +10°C° 0 mm 4 mps 740 mmHg 71%
    15:00 +10°C° 0 mm 4 mps 739 mmHg 73%
    16:00 +10°C° 0 mm 4 mps 739 mmHg 75%
    17:00 +8°C° 0 mm 5 mps 739 mmHg 76%
    18:00 +7°C° 0 mm 4 mps 739 mmHg 79%
    19:00 +6°C° 0 mm 4 mps 739 mmHg 83%
    20:00 +5°C° 0 mm 4 mps 739 mmHg 86%
    21:00 +4°C° 0 mm 4 mps 739 mmHg 88%
    22:00 +4°C° 0 mm 4 mps 738 mmHg 90%
    23:00 +3°C° 0 mm 3 mps 738 mmHg 93%
    Show more